HAZ2634 ZPPP-ZSHC

Flight info

Callsign HAZ2634
Flight time N/A
Altitude 37100
Route NODIB W137 LPS A581 IDGAG W80 XSH DCT JDZ DCT TXN G204 OREXA
Aircraft B738/M-SDE2E3FGHIRWXY/LB1

Departure

Time 2026-05-04 13:06
Airport Kunming Changshui International Airport (ZPPP)

Arrival

Time N/A
Airport Hangzhou Xiaoshan International Airport (ZSHC)
Time Latitude Longitude Altitude Speed Heading
2026-05-04 12:30 25.11132 102.93607 6913 ft 0 kts 38°
2026-05-04 12:40 25.11130 102.93607 6913 ft 0 kts 37°
2026-05-04 12:40 25.11125 102.93597 6913 ft 2 kts 70°
2026-05-04 12:41 25.11116 102.93587 6913 ft 2 kts 32°
2026-05-04 12:41 25.11104 102.93577 6913 ft 2 kts 40°
2026-05-04 12:41 25.11096 102.93570 6913 ft 2 kts 38°
2026-05-04 12:41 25.11082 102.93565 6913 ft 2 kts 350°
2026-05-04 12:42 25.11070 102.93572 6913 ft 0 kts 313°
2026-05-04 12:42 25.11066 102.93577 6913 ft 1 kts 305°
2026-05-04 12:42 25.11065 102.93579 6913 ft 0 kts 307°
2026-05-04 12:44 25.11066 102.93578 6913 ft 1 kts 306°
2026-05-04 12:44 25.11088 102.93535 6912 ft 11 kts 300°
2026-05-04 12:44 25.11146 102.93449 6913 ft 10 kts 308°
2026-05-04 12:44 25.11150 102.93444 6912 ft 0 kts 308°
2026-05-04 12:46 25.11150 102.93443 6912 ft 0 kts 308°
2026-05-04 12:46 25.11172 102.93413 6912 ft 9 kts 308°
2026-05-04 12:46 25.11225 102.93339 6913 ft 13 kts 308°
2026-05-04 12:47 25.11279 102.93265 6912 ft 11 kts 309°
2026-05-04 12:47 25.11324 102.93201 6912 ft 9 kts 308°
2026-05-04 12:47 25.11361 102.93150 6912 ft 5 kts 308°
2026-05-04 12:47 25.11386 102.93114 6912 ft 7 kts 308°
2026-05-04 12:48 25.11431 102.93054 6912 ft 12 kts 320°
2026-05-04 12:48 25.11521 102.93066 6912 ft 16 kts 41°
2026-05-04 12:48 25.11588 102.93125 6912 ft 10 kts 37°
2026-05-04 12:48 25.11618 102.93150 6912 ft 0 kts 37°
2026-05-04 12:49 25.11621 102.93152 6912 ft 1 kts 37°
2026-05-04 12:49 25.11636 102.93165 6912 ft 4 kts 39°
2026-05-04 12:49 25.11668 102.93193 6912 ft 7 kts 40°
2026-05-04 12:49 25.11716 102.93237 6912 ft 10 kts 39°
2026-05-04 12:50 25.11779 102.93295 6912 ft 13 kts 39°
2026-05-04 12:50 25.11863 102.93366 6912 ft 16 kts 36°
2026-05-04 12:50 25.11958 102.93447 6912 ft 17 kts 38°
2026-05-04 12:50 25.12048 102.93527 6912 ft 15 kts 39°
2026-05-04 12:51 25.12128 102.93597 6912 ft 13 kts 38°
2026-05-04 12:51 25.12199 102.93658 6912 ft 11 kts 38°
2026-05-04 12:51 25.12259 102.93710 6912 ft 10 kts 38°
2026-05-04 12:51 25.12309 102.93753 6912 ft 8 kts 38°
2026-05-04 12:52 25.12349 102.93787 6912 ft 6 kts 38°
2026-05-04 12:52 25.12351 102.93789 6912 ft 0 kts 38°
2026-05-04 12:54 25.12380 102.93814 6912 ft 10 kts 38°
2026-05-04 12:54 25.12440 102.93868 6912 ft 10 kts 38°
2026-05-04 12:55 25.12494 102.93913 6912 ft 8 kts 38°
2026-05-04 12:55 25.12537 102.93951 6912 ft 6 kts 38°
2026-05-04 12:55 25.12570 102.93980 6912 ft 5 kts 38°
2026-05-04 12:55 25.12606 102.94011 6912 ft 5 kts 38°
2026-05-04 12:56 25.12608 102.94013 6912 ft 0 kts 38°
2026-05-04 12:57 25.12626 102.94029 6912 ft 8 kts 38°
2026-05-04 12:57 25.12708 102.94099 6912 ft 18 kts 38°
2026-05-04 12:58 25.12797 102.94177 6912 ft 14 kts 38°
2026-05-04 12:58 25.12834 102.94209 6912 ft 0 kts 38°
2026-05-04 12:58 25.12834 102.94210 6912 ft 0 kts 38°
2026-05-04 12:59 25.12859 102.94231 6912 ft 6 kts 38°
2026-05-04 12:59 25.12887 102.94256 6912 ft 4 kts 38°
2026-05-04 12:59 25.12906 102.94270 6912 ft 2 kts 30°
2026-05-04 12:59 25.12914 102.94274 6912 ft 0 kts 20°
2026-05-04 13:00 25.12931 102.94279 6912 ft 2 kts
2026-05-04 13:01 25.12943 102.94278 6912 ft 0 kts 351°
2026-05-04 13:01 25.12959 102.94268 6912 ft 4 kts 324°
2026-05-04 13:01 25.12969 102.94257 6912 ft 0 kts 313°
2026-05-04 13:02 25.12993 102.94228 6912 ft 8 kts 311°
2026-05-04 13:03 25.13019 102.94181 6912 ft 6 kts 287°
2026-05-04 13:03 25.12978 102.94094 6912 ft 21 kts 216°
2026-05-04 13:03 25.12951 102.94072 6912 ft 0 kts 217°
2026-05-04 13:04 25.12951 102.94071 6912 ft 0 kts 217°
2026-05-04 13:04 25.12865 102.94001 6912 ft 43 kts 218°
2026-05-04 13:04 25.12459 102.93656 6912 ft 102 kts 218°
2026-05-04 13:05 25.11763 102.93047 6913 ft 152 kts 219°
2026-05-04 13:05 25.10832 102.92232 7001 ft 174 kts 218°
2026-05-04 13:05 25.09878 102.91412 7051 ft 183 kts 217°
2026-05-04 13:05 25.08866 102.90552 7176 ft 183 kts 226°
2026-05-04 13:06 25.07996 102.89532 7542 ft 192 kts 236°
2026-05-04 13:06 25.07426 102.88197 8207 ft 195 kts 245°
2026-05-04 13:06 25.06558 102.87033 8610 ft 209 kts 209°
2026-05-04 13:06 25.05096 102.86748 8972 ft 228 kts 170°
2026-05-04 13:07 25.03614 102.87592 9350 ft 249 kts 141°
2026-05-04 13:07 25.02287 102.88886 9799 ft 263 kts 143°
2026-05-04 13:07 25.00762 102.90106 10196 ft 279 kts 150°
2026-05-04 13:07 24.99040 102.91224 10582 ft 295 kts 154°
2026-05-04 13:08 24.97187 102.92330 10963 ft 312 kts 154°
2026-05-04 13:08 24.95244 102.93549 11327 ft 330 kts 149°
2026-05-04 13:08 24.93421 102.95218 11664 ft 351 kts 134°
2026-05-04 13:08 24.91948 102.97467 11996 ft 370 kts 120°
2026-05-04 13:09 24.90911 103.00133 12303 ft 388 kts 108°
2026-05-04 13:09 24.90303 103.03071 12626 ft 402 kts 98°
2026-05-04 13:09 24.90227 103.06165 13124 ft 409 kts 83°
2026-05-04 13:09 24.90875 103.09209 13668 ft 411 kts 67°
2026-05-04 13:10 24.92136 103.12009 14280 ft 411 kts 56°
2026-05-04 13:10 24.93836 103.14535 14826 ft 411 kts 44°
2026-05-04 13:10 24.95983 103.16647 15385 ft 411 kts 34°
2026-05-04 13:10 24.98292 103.18494 15968 ft 413 kts 30°
2026-05-04 13:11 25.00674 103.20244 16556 ft 415 kts 29°
2026-05-04 13:11 25.03108 103.21994 17137 ft 418 kts 29°
2026-05-04 13:11 25.05557 103.23770 17704 ft 421 kts 29°
2026-05-04 13:11 25.07977 103.25557 18217 ft 425 kts 30°
2026-05-04 13:12 25.10428 103.27402 18756 ft 429 kts 30°
2026-05-04 13:12 25.12906 103.29290 19303 ft 431 kts 30°
2026-05-04 13:12 25.15393 103.31197 19799 ft 435 kts 31°
2026-05-04 13:12 25.17877 103.33112 20308 ft 438 kts 31°
2026-05-04 13:13 25.20364 103.35033 20798 ft 441 kts 31°
2026-05-04 13:13 25.22889 103.36987 21285 ft 444 kts 31°
2026-05-04 13:13 25.25421 103.38946 21770 ft 447 kts 31°
2026-05-04 13:13 25.28011 103.40951 22197 ft 451 kts 31°
2026-05-04 13:14 25.30577 103.42937 22704 ft 452 kts 31°
2026-05-04 13:14 25.33162 103.44938 23089 ft 457 kts 30°
2026-05-04 13:14 25.35773 103.46959 23531 ft 459 kts 30°
2026-05-04 13:14 25.38403 103.48997 23953 ft 463 kts 30°
2026-05-04 13:15 25.41046 103.51045 24360 ft 466 kts 30°
2026-05-04 13:15 25.43701 103.53101 24784 ft 469 kts 30°
2026-05-04 13:15 25.46385 103.55181 25177 ft 473 kts 30°
2026-05-04 13:15 25.49066 103.57327 25572 ft 478 kts 33°
2026-05-04 13:16 25.51620 103.59744 25973 ft 485 kts 38°
2026-05-04 13:16 25.53972 103.62457 26404 ft 491 kts 44°
2026-05-04 13:16 25.56127 103.65434 26774 ft 498 kts 49°
2026-05-04 13:16 25.58127 103.68549 27133 ft 502 kts 51°
2026-05-04 13:17 25.60062 103.71786 27412 ft 508 kts 52°
2026-05-04 13:17 25.61951 103.75073 27756 ft 510 kts 53°
2026-05-04 13:17 25.63845 103.78421 28110 ft 513 kts 53°
2026-05-04 13:17 25.65730 103.81770 28672 ft 510 kts 53°
2026-05-04 13:18 25.67602 103.85092 29189 ft 507 kts 53°
2026-05-04 13:18 25.69477 103.88401 29511 ft 509 kts 52°
2026-05-04 13:18 25.71348 103.91683 29934 ft 508 kts 52°
2026-05-04 13:18 25.73247 103.95001 30372 ft 507 kts 52°
2026-05-04 13:19 25.75149 103.98313 30744 ft 507 kts 52°
2026-05-04 13:19 25.77035 104.01589 31078 ft 508 kts 52°
2026-05-04 13:19 25.78934 104.04881 31382 ft 509 kts 52°
2026-05-04 13:19 25.80865 104.08222 31711 ft 509 kts 51°
2026-05-04 13:20 25.82774 104.11497 32075 ft 509 kts 51°
2026-05-04 13:20 25.84714 104.14798 32399 ft 509 kts 51°
2026-05-04 13:20 25.86652 104.18087 32732 ft 509 kts 51°
2026-05-04 13:20 25.88584 104.21365 33204 ft 507 kts 51°
2026-05-04 13:21 25.90494 104.24610 33625 ft 505 kts 51°
2026-05-04 13:21 25.92409 104.27870 34081 ft 503 kts 51°
2026-05-04 13:21 25.94323 104.31136 34541 ft 501 kts 51°
2026-05-04 13:21 25.96208 104.34355 34935 ft 499 kts 51°
2026-05-04 13:22 25.98102 104.37592 35252 ft 499 kts 51°
2026-05-04 13:22 25.99992 104.40784 35579 ft 498 kts 49°
2026-05-04 13:22 26.01992 104.43926 35886 ft 495 kts 46°
2026-05-04 13:22 26.04177 104.46838 36204 ft 488 kts 40°
2026-05-04 13:23 26.06570 104.49487 36531 ft 482 kts 35°
2026-05-04 13:23 26.09090 104.51945 36843 ft 479 kts 32°
2026-05-04 13:23 26.11660 104.54290 37133 ft 477 kts 31°
2026-05-04 13:23 26.14237 104.56576 37353 ft 477 kts 31°
2026-05-04 13:24 26.16834 104.58869 37368 ft 480 kts 31°
2026-05-04 13:24 26.22027 104.63518 37360 ft 477 kts 31°
2026-05-04 13:25 26.29729 104.70586 37364 ft 479 kts 32°
2026-05-04 13:25 26.34878 104.75369 37366 ft 480 kts 32°
2026-05-04 13:26 26.39983 104.80132 37355 ft 481 kts 32°
2026-05-04 13:26 26.45079 104.84899 37360 ft 478 kts 32°
2026-05-04 13:27 26.50204 104.89696 37350 ft 480 kts 32°
2026-05-04 13:27 26.55309 104.94477 37352 ft 481 kts 32°
2026-05-04 13:28 26.60449 104.99317 37347 ft 482 kts 33°
2026-05-04 13:28 26.64941 105.05003 37345 ft 499 kts 51°
2026-05-04 13:29 26.68238 105.11902 37352 ft 509 kts 59°
2026-05-04 13:29 26.71126 105.19145 37346 ft 510 kts 60°
2026-05-04 13:30 26.73920 105.26411 37351 ft 510 kts 60°
2026-05-04 13:30 26.76742 105.33684 37348 ft 509 kts 60°
2026-05-04 13:31 26.79598 105.40935 37335 ft 510 kts 59°
2026-05-04 13:31 26.82467 105.48153 37325 ft 510 kts 59°
2026-05-04 13:32 26.85345 105.55377 37328 ft 511 kts 59°
2026-05-04 13:32 26.88232 105.62625 37326 ft 511 kts 59°
2026-05-04 13:33 26.91129 105.69920 37326 ft 511 kts 60°
2026-05-04 13:33 26.93993 105.77147 37320 ft 511 kts 60°
2026-05-04 13:34 26.96875 105.84432 37314 ft 511 kts 60°
2026-05-04 13:34 26.99744 105.91702 37306 ft 511 kts 59°
2026-05-04 13:35 27.04052 106.02635 37298 ft 512 kts 59°
2026-05-04 13:36 27.07105 106.09850 37297 ft 509 kts 56°
2026-05-04 13:36 27.10350 106.16851 37297 ft 506 kts 55°
2026-05-04 13:37 27.13634 106.23842 37297 ft 510 kts 55°
2026-05-04 13:37 27.16909 106.30900 37290 ft 508 kts 56°
2026-05-04 13:38 27.20131 106.37936 37281 ft 508 kts 56°
2026-05-04 13:38 27.23348 106.45003 37271 ft 510 kts 56°
2026-05-04 13:39 27.26577 106.52116 37261 ft 510 kts 56°
2026-05-04 13:39 27.29775 106.59183 37255 ft 509 kts 56°
2026-05-04 13:40 27.32985 106.66281 37249 ft 509 kts 56°
2026-05-04 13:40 27.36192 106.73386 37248 ft 510 kts 56°
2026-05-04 13:41 27.39401 106.80516 37248 ft 510 kts 56°
2026-05-04 13:41 27.42589 106.87640 37249 ft 510 kts 56°
2026-05-04 13:42 27.47358 106.98324 37243 ft 512 kts 56°
2026-05-04 13:42 27.50559 107.05465 37246 ft 510 kts 56°
2026-05-04 13:43 27.53787 107.12598 37243 ft 512 kts 56°
2026-05-04 13:43 27.57010 107.19719 37241 ft 511 kts 56°
2026-05-04 13:44 27.60214 107.26816 37237 ft 512 kts 56°
2026-05-04 13:44 27.63440 107.33970 37231 ft 512 kts 56°
2026-05-04 13:45 27.66645 107.41098 37234 ft 511 kts 56°
2026-05-04 13:45 27.69864 107.48262 37227 ft 514 kts 56°
2026-05-04 13:46 27.73097 107.55476 37227 ft 513 kts 56°
2026-05-04 13:46 27.76286 107.62611 37233 ft 513 kts 56°
2026-05-04 13:47 27.79493 107.69798 37237 ft 514 kts 56°
2026-05-04 13:47 27.82718 107.77032 37237 ft 517 kts 56°
2026-05-04 13:48 27.85966 107.84238 37223 ft 515 kts 56°
2026-05-04 13:48 27.89257 107.91428 37211 ft 514 kts 55°
2026-05-04 13:49 27.92564 107.98642 37206 ft 515 kts 55°
2026-05-04 13:49 27.95850 108.05833 37202 ft 515 kts 56°
2026-05-04 13:50 27.99120 108.13013 37201 ft 515 kts 56°
2026-05-04 13:50 28.02384 108.20215 37197 ft 515 kts 55°
2026-05-04 13:51 28.05668 108.27468 37191 ft 516 kts 55°
2026-05-04 13:51 28.08930 108.34682 37191 ft 516 kts 56°
2026-05-04 13:52 28.13836 108.45561 37191 ft 517 kts 56°
2026-05-04 13:53 28.17089 108.52793 37187 ft 518 kts 56°
2026-05-04 13:53 28.20345 108.60045 37198 ft 515 kts 56°
2026-05-04 13:54 28.25208 108.70896 37208 ft 517 kts 56°
2026-05-04 13:55 28.30091 108.81815 37208 ft 519 kts 56°
2026-05-04 13:55 28.35003 108.92834 37191 ft 518 kts 56°
2026-05-04 13:56 28.38225 109.00095 37178 ft 517 kts 56°
2026-05-04 13:57 28.43100 109.11072 37171 ft 520 kts 56°
2026-05-04 13:58 28.49554 109.25688 37150 ft 519 kts 56°
2026-05-04 13:58 28.54377 109.36666 37151 ft 518 kts 56°
2026-05-04 13:59 28.57607 109.44042 37153 ft 521 kts 57°
2026-05-04 14:00 28.61856 109.55461 37151 ft 526 kts 62°
2026-05-04 14:00 28.65716 109.67147 37139 ft 526 kts 63°
2026-05-04 14:01 28.68373 109.74891 37136 ft 527 kts 62°
2026-05-04 14:02 28.72515 109.86465 37154 ft 526 kts 61°
2026-05-04 14:02 28.75281 109.94154 37178 ft 525 kts 61°
2026-05-04 14:03 28.78048 110.01865 37190 ft 525 kts 61°
2026-05-04 14:03 28.80795 110.09566 37183 ft 527 kts 61°
2026-05-04 14:04 28.84913 110.21161 37171 ft 528 kts 62°
2026-05-04 14:04 28.87672 110.28955 37169 ft 528 kts 62°
2026-05-04 14:05 28.91783 110.40604 37167 ft 529 kts 61°
2026-05-04 14:06 28.94525 110.48386 37165 ft 531 kts 62°
2026-05-04 14:06 28.97261 110.56179 37164 ft 528 kts 61°
2026-05-04 14:07 28.99995 110.63982 37160 ft 530 kts 61°
2026-05-04 14:07 29.02735 110.71814 37152 ft 532 kts 62°
2026-05-04 14:08 29.05470 110.79609 37142 ft 531 kts 62°
2026-05-04 14:08 29.08240 110.87421 37144 ft 532 kts 62°
2026-05-04 14:09 29.12419 110.99207 37144 ft 531 kts 62°
2026-05-04 14:10 29.16568 111.10973 37138 ft 533 kts 62°
2026-05-04 14:10 29.19338 111.18861 37132 ft 533 kts 62°
2026-05-04 14:11 29.22077 111.26672 37123 ft 533 kts 62°
2026-05-04 14:11 29.26211 111.38505 37118 ft 532 kts 62°
2026-05-04 14:12 29.28958 111.46388 37116 ft 533 kts 62°
2026-05-04 14:13 29.33063 111.58189 37111 ft 533 kts 61°
2026-05-04 14:13 29.36099 111.65919 37110 ft 527 kts 55°
2026-05-04 14:14 29.39823 111.73120 37114 ft 522 kts 50°
2026-05-04 14:14 29.45837 111.83423 37112 ft 519 kts 48°
2026-05-04 14:15 29.53893 111.97250 37111 ft 521 kts 49°
2026-05-04 14:16 29.59834 112.07658 37114 ft 522 kts 49°
2026-05-04 14:17 29.65771 112.18137 37112 ft 522 kts 49°
2026-05-04 14:18 29.71707 112.28636 37110 ft 523 kts 50°
2026-05-04 14:19 29.79616 112.42703 37104 ft 524 kts 50°
2026-05-04 14:19 29.83546 112.49738 37103 ft 522 kts 50°
2026-05-04 14:20 29.87458 112.56748 37102 ft 521 kts 50°
2026-05-04 14:20 29.91371 112.63768 37103 ft 523 kts 50°
2026-05-04 14:21 29.97261 112.74365 37104 ft 522 kts 50°
2026-05-04 14:21 30.01180 112.81422 37111 ft 524 kts 50°
2026-05-04 14:22 30.05070 112.88449 37105 ft 522 kts 51°
2026-05-04 14:22 30.08975 112.95516 37100 ft 520 kts 50°
2026-05-04 14:23 30.14827 113.06110 37110 ft 521 kts 51°
2026-05-04 14:24 30.18724 113.13188 37106 ft 524 kts 51°
2026-05-04 14:24 30.22615 113.20263 37121 ft 521 kts 51°
2026-05-04 14:25 30.26500 113.27234 37106 ft 518 kts 50°
2026-05-04 14:25 30.32426 113.37759 37116 ft 521 kts 50°
2026-05-04 14:26 30.36356 113.44762 37120 ft 519 kts 51°
2026-05-04 14:26 30.40262 113.51750 37106 ft 520 kts 51°
2026-05-04 14:27 30.44170 113.58762 37118 ft 521 kts 51°
2026-05-04 14:27 30.48089 113.65810 37119 ft 519 kts 52°
2026-05-04 14:28 30.52006 113.72874 37112 ft 521 kts 52°
2026-05-04 14:28 30.55223 113.80417 37116 ft 531 kts 68°
2026-05-04 14:29 30.56673 113.88818 37113 ft 537 kts 83°
2026-05-04 14:29 30.56729 113.97495 37110 ft 538 kts 94°
2026-05-04 14:30 30.55965 114.06099 37117 ft 538 kts 98°
2026-05-04 14:31 30.54481 114.18990 37114 ft 539 kts 97°
2026-05-04 14:32 30.52677 114.36167 37129 ft 540 kts 97°
2026-05-04 14:32 30.51815 114.44825 37126 ft 538 kts 96°
2026-05-04 14:33 30.50967 114.53406 37134 ft 539 kts 96°
2026-05-04 14:33 30.50111 114.62053 37135 ft 540 kts 96°
2026-05-04 14:34 30.49253 114.70628 37136 ft 537 kts 98°
2026-05-04 14:34 30.48384 114.79237 37133 ft 538 kts 97°
2026-05-04 14:35 30.47511 114.87826 37143 ft 539 kts 97°
2026-05-04 14:35 30.46631 114.96435 37148 ft 539 kts 98°
2026-05-04 14:36 30.45747 115.05025 37147 ft 540 kts 98°
2026-05-04 14:36 30.44851 115.13648 37159 ft 540 kts 98°
2026-05-04 14:37 30.43756 115.22247 37152 ft 538 kts 104°
2026-05-04 14:37 30.41288 115.30308 37149 ft 533 kts 121°
2026-05-04 14:38 30.37561 115.37737 37161 ft 528 kts 128°
2026-05-04 14:38 30.33539 115.44827 37163 ft 526 kts 129°
2026-05-04 14:39 30.29479 115.51840 37158 ft 527 kts 129°
2026-05-04 14:40 30.19708 115.68964 37163 ft 529 kts 129°
2026-05-04 14:40 30.15694 115.76062 37160 ft 529 kts 129°
2026-05-04 14:41 30.11655 115.83204 36979 ft 528 kts 129°
2026-05-04 14:41 30.07682 115.90227 36325 ft 520 kts 129°
2026-05-04 14:42 30.03737 115.97183 35150 ft 514 kts 130°
2026-05-04 14:42 30.01784 116.00621 34711 ft 513 kts 130°
2026-05-04 14:42 29.99825 116.04061 34318 ft 515 kts 130°
2026-05-04 14:43 29.97856 116.07509 34019 ft 516 kts 130°
2026-05-04 14:43 29.95881 116.10965 33555 ft 515 kts 131°
2026-05-04 14:43 29.93942 116.14358 33106 ft 514 kts 130°
2026-05-04 14:43 29.91959 116.17828 32658 ft 513 kts 130°
2026-05-04 14:44 29.90005 116.21243 32213 ft 513 kts 130°
2026-05-04 14:44 29.88050 116.24661 31771 ft 512 kts 130°
2026-05-04 14:44 29.86103 116.28062 31198 ft 510 kts 130°
2026-05-04 14:44 29.84144 116.31481 30629 ft 509 kts 129°
2026-05-04 14:45 29.82221 116.34836 30045 ft 507 kts 129°
2026-05-04 14:45 29.80270 116.38236 29462 ft 505 kts 129°
2026-05-04 14:45 29.78338 116.41599 28818 ft 503 kts 129°
2026-05-04 14:45 29.76420 116.44932 28177 ft 505 kts 129°
2026-05-04 14:46 29.74492 116.48281 27539 ft 506 kts 128°
2026-05-04 14:46 29.72553 116.51650 26909 ft 506 kts 128°
2026-05-04 14:46 29.70616 116.55014 26276 ft 504 kts 128°
2026-05-04 14:46 29.68687 116.58367 25636 ft 503 kts 128°
2026-05-04 14:47 29.66764 116.61704 25006 ft 502 kts 127°
2026-05-04 14:47 29.64850 116.65020 24671 ft 492 kts 128°
2026-05-04 14:47 29.62960 116.68301 24654 ft 492 kts 128°
2026-05-04 14:47 29.61067 116.71578 24665 ft 497 kts 128°
2026-05-04 14:48 29.59139 116.74904 24662 ft 498 kts 128°
2026-05-04 14:48 29.57215 116.78220 24666 ft 499 kts 128°
2026-05-04 14:48 29.55297 116.81521 24663 ft 496 kts 128°
2026-05-04 14:48 29.53435 116.84734 24660 ft 483 kts 128°
2026-05-04 14:49 29.51568 116.87945 24662 ft 477 kts 131°
2026-05-04 14:49 29.49304 116.90632 24671 ft 468 kts 149°
2026-05-04 14:49 29.46484 116.92309 24670 ft 451 kts 170°
2026-05-04 14:49 29.43434 116.92868 24678 ft 433 kts 185°
2026-05-04 14:50 29.40458 116.92754 24676 ft 426 kts 192°
2026-05-04 14:50 29.37516 116.92403 24675 ft 425 kts 194°
2026-05-04 14:50 29.34564 116.91975 24531 ft 424 kts 194°
2026-05-04 14:50 29.31648 116.91528 24194 ft 426 kts 194°
2026-05-04 14:51 29.28714 116.91071 23756 ft 422 kts 194°
2026-05-04 14:51 29.25818 116.90689 23662 ft 417 kts 193°
2026-05-04 14:51 29.22918 116.90266 23664 ft 422 kts 194°
2026-05-04 14:51 29.20001 116.89800 23664 ft 422 kts 195°
2026-05-04 14:52 29.17060 116.89521 23664 ft 426 kts 187°
2026-05-04 14:52 29.14134 116.89434 23670 ft 424 kts 191°
2026-05-04 14:52 29.11182 116.89136 23669 ft 422 kts 193°
2026-05-04 14:52 29.08282 116.88732 23667 ft 420 kts 194°
2026-05-04 14:53 29.05386 116.88290 23664 ft 418 kts 195°
2026-05-04 14:53 29.02479 116.87837 23670 ft 419 kts 195°
2026-05-04 14:53 28.99603 116.87382 23667 ft 418 kts 195°
2026-05-04 14:53 28.96718 116.86919 23670 ft 418 kts 195°
2026-05-04 14:54 28.93855 116.86459 23661 ft 417 kts 195°
2026-05-04 14:54 28.90953 116.85998 23668 ft 419 kts 195°
2026-05-04 14:54 28.88103 116.85394 23670 ft 415 kts 200°
2026-05-04 14:54 28.85299 116.84669 23660 ft 416 kts 198°
2026-05-04 14:55 28.82469 116.84005 23661 ft 415 kts 199°
2026-05-04 14:55 28.79594 116.83377 23667 ft 419 kts 197°
2026-05-04 14:55 28.76730 116.82862 23664 ft 419 kts 196°
2026-05-04 14:55 28.73837 116.82394 23665 ft 420 kts 195°
2026-05-04 14:56 28.70929 116.81946 23664 ft 421 kts 195°
2026-05-04 14:56 28.68038 116.81507 23668 ft 421 kts 195°
2026-05-04 14:56 28.65062 116.81225 23669 ft 427 kts 189°
2026-05-04 14:56 28.62097 116.81302 23667 ft 431 kts 183°
2026-05-04 14:57 28.59126 116.81754 23669 ft 436 kts 177°
2026-05-04 14:57 28.56140 116.82594 23663 ft 444 kts 171°
2026-05-04 14:57 28.53223 116.83764 23665 ft 449 kts 165°
2026-05-04 14:57 28.50357 116.85303 23661 ft 455 kts 159°
2026-05-04 14:58 28.47641 116.87177 23672 ft 463 kts 153°
2026-05-04 14:58 28.45059 116.89398 23672 ft 469 kts 147°
2026-05-04 14:58 28.42639 116.91962 23669 ft 474 kts 140°
2026-05-04 14:58 28.40452 116.94795 23665 ft 481 kts 134°
2026-05-04 14:59 28.38513 116.97868 23665 ft 486 kts 128°
2026-05-04 14:59 28.36790 117.01196 23668 ft 491 kts 120°
2026-05-04 14:59 28.35379 117.08815 23680 ft 502 kts 87°
2026-05-04 15:00 28.35971 117.12677 23672 ft 501 kts 71°
2026-05-04 15:00 28.37371 117.16296 23685 ft 497 kts 58°
2026-05-04 15:00 28.39189 117.19563 23685 ft 492 kts 51°
2026-05-04 15:01 28.43397 117.25701 23691 ft 491 kts 46°
2026-05-04 15:01 28.45606 117.28601 23685 ft 489 kts 44°
2026-05-04 15:01 28.47895 117.31456 23689 ft 488 kts 42°
2026-05-04 15:01 28.50241 117.34241 23687 ft 486 kts 41°
2026-05-04 15:02 28.52652 117.36968 23686 ft 485 kts 39°
2026-05-04 15:02 28.55074 117.39581 23693 ft 483 kts 38°
2026-05-04 15:02 28.57572 117.42152 23699 ft 481 kts 36°
2026-05-04 15:02 28.60107 117.44636 23690 ft 483 kts 34°
2026-05-04 15:03 28.62710 117.47060 23711 ft 482 kts 32°
2026-05-04 15:03 28.65388 117.49301 23710 ft 478 kts 28°
2026-05-04 15:03 28.68180 117.51355 23706 ft 474 kts 25°